Time,TemperatureF,DewpointF,PressureIn,WindDirection,WindDirectionDegrees,WindSpeedMPH,WindSpeedGustMPH,Humidity,HourlyPrecipIn,Conditions,Clouds,dailyrainin,SoftwareType,DateUTC
2014-02-13 00:12:00,63.0,62.0,29.85,South,169,2.0,7.0,96,0.02,,,0.48,,2014-02-13 05:12:00,
2014-02-13 00:23:00,63.0,62.0,29.84,SSW,192,4.0,9.0,96,0.00,,,0.48,,2014-02-13 05:23:00,
2014-02-13 00:33:00,63.0,62.0,29.84,SSW,192,4.0,9.0,96,0.00,,,0.48,,2014-02-13 05:33:00,
2014-02-13 00:43:00,63.0,62.0,29.84,SSW,192,4.0,9.0,96,0.00,,,0.48,,2014-02-13 05:43:00,
2014-02-13 00:52:00,63.0,62.0,29.82,SSE,164,5.0,11.0,96,0.00,,,0.48,,2014-02-13 05:52:00,
2014-02-13 01:02:00,63.0,62.0,29.82,SSE,164,5.0,11.0,96,0.00,,,0.48,,2014-02-13 06:02:00,
2014-02-13 01:12:00,63.0,62.0,29.82,SSE,164,5.0,11.0,96,0.00,,,0.48,,2014-02-13 06:12:00,
2014-02-13 01:22:00,63.0,62.0,29.79,South,186,3.0,8.0,96,0.00,,,0.48,,2014-02-13 06:22:00,
2014-02-13 01:42:00,64.0,63.0,29.78,SSW,194,4.0,9.0,96,0.00,,,0.48,,2014-02-13 06:42:00,
2014-02-13 01:52:00,64.0,63.0,29.78,SSW,207,3.0,11.0,96,0.00,,,0.48,,2014-02-13 06:52:00,
2014-02-13 02:12:00,64.0,63.0,29.78,SW,220,3.0,9.0,96,0.00,,,0.48,,2014-02-13 07:12:00,
2014-02-13 02:22:00,64.0,63.0,29.78,SW,220,3.0,9.0,96,0.00,,,0.48,,2014-02-13 07:22:00,
2014-02-13 02:32:00,64.0,63.0,29.78,SW,220,3.0,9.0,96,0.00,,,0.48,,2014-02-13 07:32:00,
2014-02-13 02:53:00,64.0,63.0,29.77,SW,215,2.0,9.0,97,0.00,,,0.48,,2014-02-13 07:53:00,
2014-02-13 03:02:00,64.0,63.0,29.77,SW,215,2.0,9.0,97,0.00,,,0.48,,2014-02-13 08:02:00,
2014-02-13 03:12:00,64.0,63.0,29.77,SW,215,2.0,9.0,97,0.00,,,0.48,,2014-02-13 08:12:00,
2014-02-13 03:22:00,64.0,63.0,29.77,SW,215,2.0,9.0,97,0.00,,,0.48,,2014-02-13 08:22:00,
2014-02-13 03:42:00,64.0,63.0,29.77,West,268,4.0,10.0,97,0.00,,,0.48,,2014-02-13 08:42:00,
2014-02-13 03:52:00,64.0,63.0,29.76,SW,233,4.0,8.0,97,0.00,,,0.48,,2014-02-13 08:52:00,
2014-02-13 04:12:00,64.0,63.0,29.77,West,268,4.0,10.0,97,0.00,,,0.48,,2014-02-13 09:12:00,
2014-02-13 04:22:00,64.0,63.0,29.77,West,268,4.0,10.0,97,0.00,,,0.48,,2014-02-13 09:22:00,
2014-02-13 04:33:00,64.0,63.0,29.77,West,268,4.0,10.0,97,0.00,,,0.48,,2014-02-13 09:33:00,
2014-02-13 04:53:00,65.0,64.0,29.75,WSW,242,4.0,12.0,96,0.00,,,0.48,,2014-02-13 09:53:00,
2014-02-13 05:13:00,65.0,64.0,29.75,SW,234,4.0,10.0,96,0.00,,,0.48,,2014-02-13 10:13:00,
2014-02-13 05:23:00,65.0,64.0,29.75,WSW,247,6.0,11.0,96,0.00,,,0.48,,2014-02-13 10:23:00,
2014-02-13 05:43:00,66.0,65.0,29.75,SSW,207,6.0,12.0,96,0.00,,,0.48,,2014-02-13 10:43:00,
2014-02-13 05:52:00,66.0,65.0,29.75,SSW,207,6.0,12.0,96,0.00,,,0.48,,2014-02-13 10:52:00,
2014-02-13 06:02:00,66.0,65.0,29.75,SSW,207,6.0,12.0,96,0.00,,,0.48,,2014-02-13 11:02:00,
2014-02-13 06:12:00,66.0,65.0,29.75,SSW,207,6.0,12.0,96,0.00,,,0.48,,2014-02-13 11:12:00,
2014-02-13 06:53:00,66.0,65.0,29.76,SW,223,5.0,12.0,95,0.00,,,0.48,,2014-02-13 11:53:00,
2014-02-13 07:02:00,66.0,65.0,29.76,SW,223,5.0,12.0,95,0.00,,,0.48,,2014-02-13 12:02:00,
2014-02-13 07:12:00,66.0,65.0,29.76,SW,223,5.0,12.0,95,0.00,,,0.48,,2014-02-13 12:12:00,
2014-02-13 07:22:00,66.0,65.0,29.76,SW,223,5.0,12.0,95,0.00,,,0.48,,2014-02-13 12:22:00,
2014-02-13 07:42:00,67.0,66.0,29.78,WSW,243,6.0,12.0,95,0.00,,,0.48,,2014-02-13 12:42:00,
2014-02-13 07:53:00,67.0,66.0,29.79,WSW,254,9.0,17.0,96,0.02,,,0.50,,2014-02-13 12:53:00,
2014-02-13 08:11:00,67.0,65.0,29.80,West,274,8.0,14.0,94,0.02,,,0.50,,2014-02-13 13:11:00,
2014-02-13 08:22:00,67.0,65.0,29.80,West,274,8.0,14.0,94,0.02,,,0.50,,2014-02-13 13:22:00,
2014-02-13 08:42:00,64.0,62.0,29.83,NW,316,7.0,20.0,93,0.02,,,0.50,,2014-02-13 13:42:00,
2014-02-13 08:52:00,64.0,62.0,29.83,WNW,302,9.0,22.0,94,0.00,,,0.50,,2014-02-13 13:52:00,
2014-02-13 09:02:00,64.0,62.0,29.83,WNW,302,9.0,22.0,94,0.00,,,0.50,,2014-02-13 14:02:00,
2014-02-13 09:12:00,64.0,62.0,29.83,WNW,302,9.0,22.0,94,0.00,,,0.50,,2014-02-13 14:12:00,
2014-02-13 09:22:00,63.0,60.0,29.84,WNW,298,8.0,17.0,90,0.00,,,0.50,,2014-02-13 14:22:00,
2014-02-13 09:42:00,64.0,59.0,29.84,WSW,248,5.0,20.0,85,0.00,,,0.50,,2014-02-13 14:42:00,
2014-02-13 09:52:00,65.0,59.0,29.85,WNW,296,10.0,20.0,80,0.00,,,0.50,,2014-02-13 14:52:00,
2014-02-13 10:02:00,65.0,59.0,29.85,WNW,296,10.0,20.0,80,0.00,,,0.50,,2014-02-13 15:02:00,
2014-02-13 10:12:00,65.0,59.0,29.85,WNW,296,10.0,20.0,80,0.00,,,0.50,,2014-02-13 15:12:00,
2014-02-13 10:22:00,65.0,59.0,29.85,WNW,296,10.0,20.0,80,0.00,,,0.50,,2014-02-13 15:22:00,
2014-02-13 10:43:00,65.0,58.0,29.85,WNW,303,7.0,17.0,77,0.00,,,0.50,,2014-02-13 15:43:00,
2014-02-13 10:54:00,66.0,58.0,29.85,WNW,293,9.0,22.0,76,0.00,,,0.50,,2014-02-13 15:54:00,
2014-02-13 11:03:00,66.0,58.0,29.85,WNW,293,9.0,22.0,76,0.00,,,0.50,,2014-02-13 16:03:00,
2014-02-13 11:13:00,66.0,58.0,29.85,WNW,293,9.0,22.0,76,0.00,,,0.50,,2014-02-13 16:13:00,
2014-02-13 11:23:00,66.0,58.0,29.85,WNW,293,9.0,22.0,76,0.00,,,0.50,,2014-02-13 16:23:00,
2014-02-13 11:43:00,67.0,58.0,29.85,West,276,9.0,24.0,72,0.00,,,0.50,,2014-02-13 16:43:00,
2014-02-13 11:53:00,67.0,58.0,29.85,West,276,9.0,24.0,72,0.00,,,0.50,,2014-02-13 16:53:00,
2014-02-13 12:12:00,68.0,58.0,29.84,West,281,9.0,20.0,71,0.00,,,0.50,,2014-02-13 17:12:00,
2014-02-13 12:22:00,68.0,58.0,29.84,West,281,9.0,20.0,71,0.00,,,0.50,,2014-02-13 17:22:00,
2014-02-13 12:43:00,68.0,59.0,29.84,WNW,301,7.0,22.0,72,0.00,,,0.50,,2014-02-13 17:43:00,
2014-02-13 12:52:00,68.0,59.0,29.84,WNW,301,7.0,22.0,72,0.00,,,0.50,,2014-02-13 17:52:00,
2014-02-13 13:12:00,69.0,57.0,29.83,WNW,300,12.0,20.0,66,0.00,,,0.50,,2014-02-13 18:12:00,
2014-02-13 13:22:00,69.0,57.0,29.83,WNW,300,12.0,20.0,66,0.00,,,0.50,,2014-02-13 18:22:00,
2014-02-13 13:32:00,69.0,57.0,29.83,WNW,300,12.0,20.0,66,0.00,,,0.50,,2014-02-13 18:32:00,
2014-02-13 13:42:00,69.0,57.0,29.83,WNW,300,12.0,20.0,66,0.00,,,0.50,,2014-02-13 18:42:00,
2014-02-13 14:12:00,68.0,55.0,29.82,WSW,254,11.0,23.0,64,0.00,,,0.50,,2014-02-13 19:12:00,
2014-02-13 14:23:00,69.0,56.0,29.81,WNW,302,10.0,17.0,63,0.00,,,0.50,,2014-02-13 19:23:00,
2014-02-13 14:33:00,69.0,56.0,29.81,WNW,302,10.0,17.0,63,0.00,,,0.50,,2014-02-13 19:33:00,
2014-02-13 14:42:00,69.0,56.0,29.81,WNW,302,10.0,17.0,63,0.00,,,0.50,,2014-02-13 19:42:00,
2014-02-13 14:52:00,69.0,55.0,29.80,NW,320,9.0,21.0,61,0.00,,,0.50,,2014-02-13 19:52:00,
2014-02-13 15:01:00,69.0,55.0,29.80,NW,320,9.0,21.0,61,0.00,,,0.50,,2014-02-13 20:01:00,
2014-02-13 15:11:00,69.0,55.0,29.80,NW,320,9.0,21.0,61,0.00,,,0.50,,2014-02-13 20:11:00,
2014-02-13 15:22:00,71.0,55.0,29.80,NW,321,8.0,18.0,57,0.00,,,0.50,,2014-02-13 20:22:00,
2014-02-13 15:42:00,71.0,55.0,29.80,West,277,8.0,18.0,58,0.00,,,0.50,,2014-02-13 20:42:00,
2014-02-13 15:52:00,70.0,55.0,29.80,WNW,288,10.0,22.0,59,0.00,,,0.50,,2014-02-13 20:52:00,
2014-02-13 16:12:00,69.0,54.0,29.81,West,281,9.0,20.0,59,0.00,,,0.50,,2014-02-13 21:12:00,
2014-02-13 16:22:00,69.0,55.0,29.82,West,279,6.0,15.0,61,0.00,,,0.50,,2014-02-13 21:22:00,
2014-02-13 16:43:00,69.0,54.0,29.83,WNW,302,12.0,20.0,58,0.00,,,0.50,,2014-02-13 21:43:00,
2014-02-13 16:54:00,68.0,53.0,29.83,WNW,292,9.0,19.0,59,0.00,,,0.50,,2014-02-13 21:54:00,
2014-02-13 17:13:00,68.0,54.0,29.84,NW,310,7.0,16.0,60,0.00,,,0.50,,2014-02-13 22:13:00,
2014-02-13 17:23:00,67.0,53.0,29.85,NW,317,6.0,16.0,60,0.00,,,0.50,,2014-02-13 22:23:00,
2014-02-13 17:43:00,66.0,52.0,29.85,NW,321,8.0,15.0,60,0.00,,,0.50,,2014-02-13 22:43:00,
2014-02-13 17:53:00,66.0,53.0,29.86,NNW,337,5.0,14.0,62,0.00,,,0.50,,2014-02-13 22:53:00,
2014-02-13 18:22:00,64.0,49.0,29.88,WNW,297,8.0,16.0,59,0.00,,,0.50,,2014-02-13 23:22:00,
2014-02-13 18:43:00,63.0,48.0,29.88,West,281,6.0,15.0,58,0.00,,,0.50,,2014-02-13 23:43:00,
2014-02-13 18:53:00,62.0,48.0,29.89,NW,312,4.0,11.0,60,0.00,,,0.50,,2014-02-13 23:53:00,
2014-02-13 19:11:00,62.0,48.0,29.89,WNW,292,4.0,11.0,60,0.00,,,0.50,,2014-02-14 00:11:00,
2014-02-13 19:22:00,61.0,47.0,29.90,WNW,299,4.0,9.0,60,0.00,,,0.50,,2014-02-14 00:22:00,
2014-02-13 19:42:00,61.0,48.0,29.91,NW,314,3.0,12.0,63,0.00,,,0.50,,2014-02-14 00:42:00,
2014-02-13 19:52:00,60.0,48.0,29.91,NW,309,2.0,8.0,65,0.00,,,0.50,,2014-02-14 00:52:00,
2014-02-13 20:22:00,59.0,49.0,29.93,NW,306,1.0,3.0,69,0.00,,,0.50,,2014-02-14 01:22:00,
2014-02-13 20:42:00,59.0,49.0,29.93,NW,307,1.0,6.0,70,0.00,,,0.50,,2014-02-14 01:42:00,
2014-02-13 20:52:00,58.0,49.0,29.94,NW,306,1.0,4.0,73,0.00,,,0.50,,2014-02-14 01:52:00,
2014-02-13 21:12:00,58.0,49.0,29.95,WNW,290,0.0,3.0,73,0.00,,,0.50,,2014-02-14 02:12:00,
2014-02-13 21:22:00,57.0,49.0,29.95,WNW,294,1.0,3.0,75,0.00,,,0.50,,2014-02-14 02:22:00,
2014-02-13 21:42:00,57.0,49.0,29.96,NW,315,1.0,6.0,75,0.00,,,0.50,,2014-02-14 02:42:00,
2014-02-13 21:53:00,57.0,49.0,29.96,NW,318,1.0,6.0,75,0.00,,,0.50,,2014-02-14 02:53:00,
2014-02-13 22:12:00,57.0,49.0,29.96,NW,318,0.0,5.0,75,0.00,,,0.50,,2014-02-14 03:12:00,
2014-02-13 22:22:00,57.0,50.0,29.97,NW,318,1.0,5.0,76,0.00,,,0.12,,2014-02-14 03:22:00,
2014-02-13 22:44:00,56.0,49.0,29.97,NW,318,0.0,5.0,78,0.00,,,0.12,,2014-02-14 03:44:00,
2014-02-13 22:54:00,56.0,50.0,29.97,NW,318,1.0,4.0,79,0.00,,,0.12,,2014-02-14 03:54:00,
2014-02-13 23:24:00,55.0,49.0,29.98,NW,318,2.0,5.0,80,0.00,,,0.02,,2014-02-14 04:24:00,
2014-02-13 23:53:00,54.0,48.0,29.98,NW,317,1.0,6.0,80,0.00,,,0.02,,2014-02-14 04:53:00,